This is the latest recevied weather packets stored in our database for station/object DB0WUN-13. If no packets are shown the sender has not sent any weather packets the latest 10 day(s).
| Time | Temp. | Humidity | Pressure | Rain* | Wind** | Luminosity | Snow |
|---|---|---|---|---|---|---|---|
| 1778164621 | 9.44° C | 85% | 1014.3 hPa | 0 mm | - | 190 W/m² | - |
| 1778164562 | 9.44° C | 85% | 1014.2 hPa | 0 mm | - | 178 W/m² | - |
| 1778164507 | 10° C | 86% | 1014.2 hPa | 0 mm | - | 162 W/m² | - |
| 1778164444 | 9.44° C | 86% | 1014.2 hPa | 0 mm | - | 156 W/m² | - |
| 1778164382 | 9.44° C | 86% | 1014.2 hPa | 0 mm | - | 163 W/m² | - |
| 1778164325 | 9.44° C | 86% | 1014.2 hPa | 0 mm | - | 178 W/m² | - |
| 1778164260 | 9.44° C | 86% | 1014.4 hPa | 0 mm | - | 183 W/m² | - |
| 1778164198 | 9.44° C | 87% | 1014.2 hPa | 0 mm | - | 183 W/m² | - |
| 1778164144 | 10° C | 88% | 1014.3 hPa | 0 mm | - | 179 W/m² | - |
| 1778164081 | 9.44° C | 87% | 1014.2 hPa | 0 mm | - | 179 W/m² | - |
| 1778164020 | 9.44° C | 87% | 1014.2 hPa | 0 mm | - | 179 W/m² | - |
| 1778163967 | 9.44° C | 86% | 1014.2 hPa | 0 mm | - | 171 W/m² | - |
| 1778163916 | 9.44° C | 87% | 1014.2 hPa | 0 mm | - | 160 W/m² | - |
| 1778163873 | 9.44° C | 87% | 1014.2 hPa | 0 mm | - | 151 W/m² | - |
| 1778163832 | 9.44° C | 87% | 1014.2 hPa | 0 mm | - | 144 W/m² | - |
| 1778163801 | 9.44° C | 87% | 1014.2 hPa | 0 mm | - | 135 W/m² | - |
| 1778163764 | 9.44° C | 87% | 1014.3 hPa | 0 mm | - | 125 W/m² | - |
| 1778163717 | 9.44° C | 88% | 1014.2 hPa | 0 mm | - | 125 W/m² | - |
| 1778163670 | 9.44° C | 87% | 1014.2 hPa | 0 mm | - | 125 W/m² | - |
| 1778163476 | 9.44° C | 87% | 1014.2 hPa | 0 mm | - | 132 W/m² | - |
| 1778163416 | 9.44° C | 87% | 1014.1 hPa | 0 mm | - | 144 W/m² | - |
| 1778163356 | 9.44° C | 87% | 1014.2 hPa | 0 mm | - | 162 W/m² | - |
| 1778163297 | 9.44° C | 87% | 1014.2 hPa | 0 mm | - | 188 W/m² | - |
| 1778163239 | 9.44° C | 87% | 1014.2 hPa | 0 mm | - | 213 W/m² | - |
| 1778163176 | 9.44° C | 87% | 1014.2 hPa | 0 mm | - | 232 W/m² | - |
* Rain latest hour (hover to see other rain measurements)
** Current wind speed in m/s (hover to see current wind gust speed)